TimePST,TemperatureF,Dew PointF,Humidity,Sea Level PressureIn,VisibilityMPH,Wind Direction,Wind SpeedMPH,Gust SpeedMPH,PrecipitationIn,Events,Conditions,WindDirDegrees,DateUTC
12:56 AM,45.0,26.1,48,29.99,10.0,SSW,3.5,-,N/A,,Clear,200,2012-11-26 08:56:00
1:56 AM,37.9,23.0,55,30.01,10.0,NNW,3.5,-,N/A,,Clear,330,2012-11-26 09:56:00
2:56 AM,36.0,21.9,57,30.02,10.0,Calm,Calm,-,N/A,,Clear,0,2012-11-26 10:56:00
3:56 AM,37.9,21.0,51,30.03,10.0,West,3.5,-,N/A,,Clear,280,2012-11-26 11:56:00
4:56 AM,33.1,19.0,56,30.06,10.0,Calm,Calm,-,N/A,,Clear,0,2012-11-26 12:56:00
5:56 AM,33.1,19.0,56,30.08,10.0,Calm,Calm,-,N/A,,Clear,0,2012-11-26 13:56:00
6:56 AM,30.9,17.1,57,30.10,10.0,Calm,Calm,-,N/A,,Clear,0,2012-11-26 14:56:00
7:56 AM,41.0,21.9,47,30.11,10.0,West,3.5,-,N/A,,Clear,280,2012-11-26 15:56:00
8:56 AM,48.9,26.1,41,30.13,10.0,Calm,Calm,-,N/A,,Clear,0,2012-11-26 16:56:00
9:56 AM,57.0,24.1,28,30.13,10.0,Calm,Calm,-,N/A,,Clear,0,2012-11-26 17:56:00
10:56 AM,63.0,21.9,21,30.11,10.0,Calm,Calm,-,N/A,,Clear,0,2012-11-26 18:56:00
11:56 AM,68.0,19.0,15,30.08,10.0,NNE,3.5,-,N/A,,Clear,30,2012-11-26 19:56:00
12:56 PM,70.0,19.0,14,30.06,10.0,NE,3.5,-,N/A,,Clear,40,2012-11-26 20:56:00
1:56 PM,72.0,19.0,13,30.05,10.0,Calm,Calm,-,N/A,,Clear,0,2012-11-26 21:56:00
2:56 PM,73.0,19.9,14,30.05,10.0,ENE,3.5,-,N/A,,Clear,60,2012-11-26 22:56:00
3:56 PM,71.1,19.9,14,30.05,10.0,Calm,Calm,-,N/A,,Clear,0,2012-11-26 23:56:00
4:56 PM,66.0,19.9,17,30.07,10.0,Calm,Calm,-,N/A,,Clear,0,2012-11-27 00:56:00
5:56 PM,54.0,18.0,24,30.10,10.0,West,8.1,-,N/A,,Clear,260,2012-11-27 01:56:00
6:56 PM,48.0,21.9,36,30.13,10.0,WNW,5.8,-,N/A,,Clear,300,2012-11-27 02:56:00
7:56 PM,48.0,19.0,32,30.13,10.0,NW,6.9,-,N/A,,Clear,310,2012-11-27 03:56:00
8:56 PM,48.0,21.9,36,30.15,10.0,Calm,Calm,-,N/A,,Clear,0,2012-11-27 04:56:00
9:56 PM,46.9,24.1,41,30.15,10.0,West,3.5,-,N/A,,Clear,270,2012-11-27 05:56:00
10:56 PM,39.9,19.9,45,30.16,10.0,WNW,5.8,-,N/A,,Clear,300,2012-11-27 06:56:00
11:56 PM,39.0,19.9,46,30.16,10.0,Calm,Calm,-,N/A,,Clear,0,2012-11-27 07:56:00